[[{"header":{"parameterUnit":"m.s-1","parameterCategory":2,"la1":30.2991,"la2":30.254,"lo1":-89.0895,"lo2":-89.0444,"dy":0.0017,"dx":0.0017,"nx":28,"ny":28,"refTime":"2024-12-24T03:00:00:Z","depth":"0","parameterNumber":2,"parameterNumberName":"U-component_of_CURRENTS"},"data":[0,0,0,0,0,0,0,0,0,0,0,0,0,0,0,0,0,0,0,0,0,0,0,0,0,0,0,0,0,0,0,0,0,0,0,0,0,0,0,0,0,0,0,0,0,0,0,0,0,0,0,0,0,0,0,0,0,0,-0.203,-0.203,0,-0.2026,-0.2026,-0.2025,-0.1993,-0.1992,-0.1992,-0.1991,-0.1943,-0.1943,-0.1942,0,0,0,0,0,0,0,0,0,0,0,0,0,-0.1978,-0.1979,-0.203,-0.203,-0.203,-0.2026,-0.2026,-0.2025,-0.1993,-0.1992,-0.1992,-0.1991,-0.1944,-0.1943,-0.1942,0,0,0,0,0,0,0,0,0,0,0,0,0,-0.1987,-0.198,-0.203,-0.2016,-0.2015,-0.2026,-0.2026,-0.2025,-0.1993,-0.1992,-0.1992,-0.1991,-0.1944,-0.1943,-0.1942,-0.195,0,0,-0.1938,-0.1937,0,0,0,0,0,0,0,0,-0.1987,-0.1989,-0.2018,-0.2017,-0.2016,-0.2012,-0.199,-0.1999,-0.1993,-0.1998,-0.1991,-0.199,-0.1965,-0.1962,-0.1959,-0.1948,-0.1946,-0.1938,-0.1937,-0.1937,-0.1936,0,0,0,0,0,0,0,-0.1986,-0.1989,-0.2025,-0.2018,-0.2017,-0.2,-0.2,-0.1992,-0.1983,-0.1998,-0.1996,-0.2001,-0.1963,-0.196,-0.1958,-0.1945,-0.1938,-0.1937,-0.1936,-0.1936,-0.1935,-0.1935,0,0,0,0,0,0,-0.1996,-0.1989,-0.2025,-0.2025,-0.2003,-0.2002,-0.2002,-0.2011,-0.1984,-0.198,-0.2002,-0.1999,-0.1963,-0.1959,-0.1956,-0.1969,-0.1937,-0.1936,-0.1935,-0.1934,-0.1935,-0.1936,0,0,0,0,0,0,-0.1995,-0.1999,-0.2025,-0.2009,-0.2011,-0.2004,-0.2014,-0.2012,-0.2008,-0.1988,-0.1982,-0.2001,-0.1962,-0.1957,-0.1951,-0.1967,-0.1935,-0.1934,-0.1933,-0.1934,-0.1935,-0.1993,0,0,0,0,0,0,-0.1994,-0.1999,-0.2005,-0.201,-0.2013,-0.204,-0.2015,-0.2012,-0.2014,-0.2011,-0.1985,-0.198,-0.1961,-0.1953,-0.195,-0.1965,-0.1933,-0.1932,-0.1934,-0.1935,-0.199,-0.1996,-0.2001,0,0,0,0,0,-0.1992,-0.2007,-0.2005,-0.201,-0.2022,-0.2041,-0.2041,-0.203,-0.2014,-0.2021,-0.2001,-0.1981,-0.1959,-0.1953,-0.1949,-0.1964,-0.1932,-0.1933,-0.1935,-0.1988,-0.1995,-0.2001,0,0,0,0,0,0,-0.1986,-0.2006,-0.2004,-0.2023,-0.2035,-0.2037,-0.2041,-0.2034,-0.2024,-0.2016,-0.199,-0.1984,-0.1984,-0.1967,-0.1961,-0.1967,-0.1942,-0.1943,-0.1984,-0.199,-0.1995,-0.1998,-0.1932,0,0,0,0,0,-0.199,-0.2005,-0.2022,-0.2035,-0.2044,-0.2042,-0.2045,-0.2042,-0.2037,-0.2031,-0.2015,-0.1997,-0.1989,-0.1984,-0.1971,-0.1977,-0.1967,-0.1983,-0.1989,-0.1993,-0.1993,-0.1991,-0.1996,-0.1941,-0.1941,-0.1941,0,0,-0.199,-0.2003,-0.201,-0.2035,-0.2038,-0.2059,-0.2041,-0.2053,-0.2064,-0.2028,-0.203,-0.2014,-0.1994,-0.1998,-0.1997,-0.1986,-0.2008,-0.1995,-0.1999,-0.1996,-0.1993,-0.1999,-0.2003,-0.1942,-0.1942,-0.1941,0,0,-0.2001,-0.2013,-0.2029,-0.2046,-0.2063,-0.2068,-0.2075,-0.2082,-0.2079,-0.2085,-0.2061,-0.2056,-0.2041,-0.2035,-0.2028,-0.2056,-0.2034,-0.2051,-0.2082,-0.2081,-0.2085,-0.2089,-0.2101,-0.2105,-0.2056,-0.2056,-0.2056,0,-0.1999,-0.2025,-0.2036,-0.206,-0.2075,-0.2076,-0.2099,-0.2104,-0.2106,-0.2109,-0.2092,-0.2077,-0.206,-0.207,-0.2078,-0.2069,-0.2065,-0.2061,-0.2088,-0.2092,-0.2094,-0.2105,-0.2109,-0.2059,-0.2059,-0.2058,-0.2058,0,-0.2023,-0.2047,-0.206,-0.2091,-0.2109,-0.2129,-0.2147,-0.2158,-0.2152,-0.2154,-0.2158,-0.2137,-0.2127,-0.2126,-0.2108,-0.2125,-0.2116,-0.2095,-0.2074,-0.2104,-0.2113,-0.2116,-0.2063,-0.2062,-0.2061,-0.206,0,0,-0.2005,-0.2066,-0.2068,-0.2089,-0.2127,-0.2143,-0.2174,-0.22,-0.2215,-0.2211,-0.2228,-0.2213,-0.2196,-0.2187,-0.2169,-0.2168,-0.2191,-0.2142,-0.2141,-0.2156,-0.2199,-0.218,-0.2182,-0.2173,-0.2173,-0.2174,-0.2203,0,-0.2016,-0.2065,-0.2094,-0.2136,-0.2161,-0.2186,-0.2217,-0.224,-0.2249,-0.2268,-0.2254,-0.2256,-0.2223,-0.2217,-0.2214,-0.2194,-0.2199,-0.2186,-0.2164,-0.2163,-0.2146,-0.2184,-0.2156,-0.2179,-0.2206,-0.2207,-0.2207,0,-0.2022,-0.2057,-0.2101,-0.2162,-0.2175,-0.2201,-0.2245,-0.2272,-0.2306,-0.2314,-0.2318,-0.2306,-0.231,-0.2272,-0.2259,-0.2251,-0.2229,-0.2213,-0.2214,-0.2175,-0.215,-0.2149,-0.2183,-0.2189,-0.2211,-0.2211,-0.2211,0,-0.199,-0.2057,-0.2091,-0.2111,-0.2181,-0.2202,-0.2234,-0.2277,-0.2301,-0.2337,-0.2353,-0.2356,-0.2349,-0.2329,-0.2291,-0.2277,-0.2277,-0.2255,-0.2222,-0.2221,-0.2181,-0.2176,-0.2218,-0.2247,-0.2247,-0.2247,-0.2246,0,-0.1985,-0.201,-0.2077,-0.2095,-0.2132,-0.2186,-0.2224,-0.2258,-0.2312,-0.234,-0.2363,-0.2377,-0.2358,-0.2353,-0.232,-0.2285,-0.2299,-0.2237,-0.2228,-0.2202,-0.2199,-0.2187,-0.2188,-0.2248,-0.2247,-0.2247,-0.2247,0,-0.1939,-0.1989,-0.2025,-0.2096,-0.2115,-0.2135,-0.2209,-0.2236,-0.2297,-0.2335,-0.2347,-0.2392,-0.2388,-0.2373,-0.2347,-0.2314,-0.2264,-0.2269,-0.2248,-0.2236,-0.2207,-0.2211,-0.218,-0.2127,-0.225,-0.225,-0.2249,0,-0.1919,-0.1932,-0.1999,-0.2014,-0.2042,-0.2087,-0.2116,-0.2202,-0.2235,-0.2334,-0.2343,-0.2377,-0.2387,-0.2369,-0.2333,-0.2301,-0.2251,-0.2239,-0.2203,-0.2213,-0.2212,-0.2171,-0.2125,-0.2184,-0.2183,-0.2183,-0.2182,0,-0.1864,-0.1883,-0.191,-0.1943,-0.1973,-0.2014,-0.2066,-0.2101,-0.2202,-0.2254,-0.2318,-0.2348,-0.2367,-0.2341,-0.2309,-0.2265,-0.2208,-0.2225,-0.2238,-0.217,-0.2125,-0.2066,-0.217,-0.2177,-0.2177,-0.2178,-0.2178,-0.2178,-0.18,-0.1799,-0.1827,-0.1851,-0.1886,-0.1917,-0.192,-0.2005,-0.2062,-0.2137,-0.2235,-0.2295,-0.2331,-0.2296,-0.2261,-0.2213,-0.2171,-0.2156,-0.2165,-0.2126,-0.2058,-0.2157,-0.2146,-0.2147,-0.2147,-0.2147,-0.2147,0,-0.1708,-0.1715,-0.1733,-0.1755,-0.175,-0.1806,-0.1858,-0.1853,-0.1892,-0.203,-0.2095,-0.2251,-0.2245,-0.2272,-0.2264,-0.2193,-0.2107,-0.2127,-0.2076,-0.2032,-0.2133,-0.2114,-0.2093,-0.2093,-0.2093,-0.2093,-0.2093,-0.2093,-0.1657,-0.1634,-0.1648,-0.1605,-0.1617,-0.1576,-0.1583,-0.1608,-0.168,-0.1806,-0.1964,-0.2124,-0.2186,-0.2364,-0.2306,-0.2208,-0.2126,-0.2057,-0.203,-0.2141,-0.2144,-0.2148,-0.2131,-0.2114,-0.2114,-0.1879,-0.1878,-0.1876]},{"header":{"parameterUnit":"m.s-1","parameterCategory":2,"la1":30.2991,"la2":30.254,"lo1":-89.0895,"lo2":-89.0444,"dy":0.0017,"dx":0.0017,"nx":28,"ny":28,"refTime":"2024-12-24T03:00:00:Z","depth":"0","parameterNumber":3,"parameterNumberName":"V-component_of_CURRENTS"},"data":[0,0,0,0,0,0,0,0,0,0,0,0,0,0,0,0,0,0,0,0,0,0,0,0,0,0,0,0,0,0,0,0,0,0,0,0,0,0,0,0,0,0,0,0,0,0,0,0,0,0,0,0,0,0,0,0,0,0,-0.0282,-0.0282,0,-0.0211,-0.021,-0.0209,-0.0171,-0.0171,-0.0171,-0.0171,-0.008,-0.0078,-0.0076,0,0,0,0,0,0,0,0,0,0,0,0,0,-0.0332,-0.0332,-0.0282,-0.0281,-0.0281,-0.0211,-0.021,-0.0209,-0.0171,-0.0171,-0.0171,-0.0171,-0.0081,-0.0078,-0.0076,0,0,0,0,0,0,0,0,0,0,0,0,0,-0.0291,-0.0332,-0.0283,-0.0254,-0.025,-0.0211,-0.021,-0.0209,-0.0171,-0.0171,-0.0171,-0.0171,-0.0082,-0.0079,-0.0075,-0.0055,0,0,-0.0064,-0.0063,0,0,0,0,0,0,0,0,-0.0293,-0.0289,-0.0259,-0.0255,-0.0252,-0.02,-0.0194,-0.0156,-0.0172,-0.0201,-0.0171,-0.0171,-0.0119,-0.0112,-0.0099,-0.0051,-0.0047,-0.0064,-0.0062,-0.006,-0.0059,0,0,0,0,0,0,0,-0.0296,-0.0292,-0.0254,-0.0258,-0.0254,-0.0226,-0.022,-0.0187,-0.0161,-0.0199,-0.0196,-0.0188,-0.0117,-0.0103,-0.0097,-0.0045,-0.0064,-0.0061,-0.0059,-0.0057,0.0028,0.0029,0,0,0,0,0,0,-0.0308,-0.0295,-0.0256,-0.0252,-0.0273,-0.0225,-0.0219,-0.0217,-0.0162,-0.0153,-0.0188,-0.0187,-0.0109,-0.0101,-0.0093,-0.0063,-0.006,-0.0057,-0.0055,0.0028,0.0028,0.0029,0,0,0,0,0,0,-0.031,-0.0306,-0.0259,-0.0271,-0.0263,-0.0225,-0.0222,-0.0215,-0.0201,-0.0154,-0.0145,-0.0182,-0.0108,-0.0098,-0.0062,-0.0059,-0.0055,-0.0052,0.0028,0.0028,0.0028,-0.0004,0,0,0,0,0,0,-0.0312,-0.0307,-0.031,-0.0272,-0.0263,-0.0241,-0.0222,-0.0214,-0.0197,-0.0194,-0.0145,-0.0137,-0.0107,-0.0068,-0.0059,-0.0054,-0.0049,0.0028,0.0028,0.0028,-0.0003,-0.0005,-0.0007,0,0,0,0,0,-0.0314,-0.032,-0.0311,-0.0306,-0.0269,-0.0241,-0.0233,-0.0205,-0.0197,-0.0192,-0.0157,-0.0138,-0.006,-0.0065,-0.0054,-0.0049,0.0028,0.0028,0.0028,-0.0003,-0.0005,-0.0007,0,0,0,0,0,0,-0.0343,-0.0315,-0.0305,-0.0302,-0.0275,-0.0234,-0.0229,-0.0208,-0.0177,-0.0176,-0.0132,-0.0121,-0.0089,-0.0065,-0.0071,-0.0024,-0.0014,-0.0012,-0.0042,-0.0043,-0.0045,-0.0062,-0.0046,0,0,0,0,0,-0.0352,-0.035,-0.0316,-0.0314,-0.0304,-0.0267,-0.0253,-0.0233,-0.02,-0.0187,-0.0151,-0.0114,-0.0079,-0.0059,-0.0026,0.0002,0.003,0.0011,0.0009,0.0008,0.0001,0.0047,0.0049,0.003,0.003,0.003,0,0,-0.0363,-0.0348,-0.0347,-0.0321,-0.0299,-0.0288,-0.0259,-0.0241,-0.0228,-0.0182,-0.0155,-0.0119,-0.0074,-0.0042,-0.0026,-0.0021,0.0029,0.0008,0.0007,0.0,0.0047,0.0049,0.0051,0.003,0.003,0.003,0,0,-0.0388,-0.0372,-0.038,-0.036,-0.0332,-0.0306,-0.0304,-0.0264,-0.0242,-0.0211,-0.0175,-0.0136,-0.0086,-0.0049,-0.0025,-0.0016,0.0017,-0.0009,-0.0028,0.0017,0.0019,0.0021,0.0061,0.0067,-0.0009,-0.0009,-0.0009,0,-0.0404,-0.0408,-0.0377,-0.0376,-0.0365,-0.0319,-0.0321,-0.0289,-0.0241,-0.0221,-0.0209,-0.0127,-0.0089,-0.0043,-0.0041,-0.002,0.0007,-0.0024,0.0014,0.0017,0.0019,0.006,0.0067,-0.001,-0.001,-0.001,-0.001,0,-0.0432,-0.0433,-0.0435,-0.0421,-0.0401,-0.0396,-0.035,-0.0326,-0.0295,-0.0259,-0.0209,-0.0152,-0.0103,-0.0084,-0.006,-0.0022,-0.0009,0.0005,0.0017,0.0019,0.0063,0.007,-0.0012,-0.0012,-0.0011,-0.0011,0,0,-0.0474,-0.0461,-0.0461,-0.0465,-0.0426,-0.0416,-0.0388,-0.0349,-0.0331,-0.0276,-0.0245,-0.0179,-0.0145,-0.0116,-0.0073,-0.0036,0.001,-0.0015,-0.0012,0.0021,0.0105,0.0144,0.0157,0.0029,0.003,0.0031,0.0129,0,-0.0508,-0.053,-0.0503,-0.0513,-0.052,-0.0467,-0.0446,-0.0401,-0.0351,-0.0307,-0.0235,-0.0193,-0.0156,-0.0135,-0.0087,-0.0011,0.0027,-0.0019,0.0101,0.0105,0.0136,0.0166,0.0211,0.0305,0.0136,0.0138,0.0139,0,-0.0546,-0.0556,-0.058,-0.0568,-0.0564,-0.0556,-0.0514,-0.0487,-0.0406,-0.0366,-0.0301,-0.0242,-0.0166,-0.0145,-0.0012,-0.0044,0.002,0.0076,0.0081,0.0133,0.0159,0.0276,0.0326,0.0472,0.0151,0.015,0.0149,0,-0.0604,-0.0607,-0.0632,-0.0628,-0.0604,-0.0599,-0.0578,-0.051,-0.0486,-0.0403,-0.0372,-0.027,-0.0217,-0.0119,0.0007,-0.0005,0.015,0.0153,0.0249,0.0253,0.0323,0.033,0.0524,0.0232,0.0232,0.0232,0.0231,0,-0.0656,-0.0672,-0.0665,-0.0681,-0.0703,-0.0658,-0.0656,-0.0614,-0.0549,-0.052,-0.0412,-0.0359,-0.0211,-0.0098,0.0005,0.0165,0.0157,0.0253,0.0285,0.0313,0.0318,0.0473,0.0519,0.0235,0.0234,0.0234,0.0233,0,-0.0716,-0.0711,-0.0741,-0.0735,-0.0735,-0.0751,-0.0723,-0.0715,-0.064,-0.0596,-0.0575,-0.0421,-0.0261,-0.0104,0.007,0.0165,0.039,0.0356,0.0378,0.0411,0.0625,0.0666,0.0852,0.0889,0.0479,0.048,0.0482,0,-0.0749,-0.0773,-0.0795,-0.0821,-0.0822,-0.0833,-0.0838,-0.0776,-0.0754,-0.063,-0.0609,-0.0445,-0.0308,-0.0015,0.019,0.0399,0.0474,0.0538,0.0523,0.0658,0.0727,0.0741,0.0758,0.0607,0.0609,0.0611,0.0612,0,-0.081,-0.0817,-0.0844,-0.0904,-0.0927,-0.0943,-0.0936,-0.0932,-0.0845,-0.0782,-0.0659,-0.0539,-0.0223,0.0064,0.0345,0.0464,0.0641,0.0581,0.0728,0.0851,0.0874,0.0918,0.0515,0.0629,0.0627,0.0626,0.0625,0.0625,-0.0849,-0.0889,-0.093,-0.0981,-0.1016,-0.1038,-0.105,-0.1015,-0.0973,-0.0854,-0.0716,-0.0501,-0.0056,0.037,0.0514,0.0857,0.0785,0.0948,0.0988,0.0992,0.1028,0.0656,0.0798,0.0797,0.0796,0.0796,0.0795,0,-0.0896,-0.0939,-0.1002,-0.1059,-0.1111,-0.1104,-0.1105,-0.1094,-0.1047,-0.0887,-0.074,-0.0238,0.0199,0.0591,0.1096,0.1267,0.126,0.1345,0.1393,0.1387,0.1087,0.1094,0.1299,0.1299,0.1299,0.1299,0.1299,0.1299,-0.0921,-0.0995,-0.1032,-0.1129,-0.1167,-0.121,-0.1211,-0.1172,-0.1068,-0.0807,-0.052,-0.0287,0.034,0.1199,0.166,0.1677,0.1778,0.1775,0.18,0.163,0.1596,0.1563,0.1585,0.189,0.189,0.2083,0.2085,0.2087]}],[{"header":{"parameterUnit":"m.s-1","parameterCategory":2,"la1":30.2991,"la2":30.254,"lo1":-89.0895,"lo2":-89.0444,"dy":0.0017,"dx":0.0017,"nx":28,"ny":28,"refTime":"2024-12-24T03:00:00:Z","depth":"2","parameterNumber":2,"parameterNumberName":"U-component_of_CURRENTS"},"data":[0,0,0,0,0,0,0,0,0,0,0,0,0,0,0,0,0,0,0,0,0,0,0,0,0,0,0,0,0,0,0,0,0,0,0,0,0,0,0,0,0,0,0,0,0,0,0,0,0,0,0,0,0,0,0,0,0,0,-0.1898,-0.1898,0,-0.1892,-0.1892,-0.1891,-0.1862,-0.1861,-0.1861,-0.1861,-0.1816,-0.1815,-0.1814,0,0,0,0,0,0,0,0,0,0,0,0,0,-0.1855,-0.1855,-0.1898,-0.1898,-0.1899,-0.1892,-0.1892,-0.1891,-0.1862,-0.1861,-0.1861,-0.186,-0.1816,-0.1815,-0.1814,0,0,0,0,0,0,0,0,0,0,0,0,0,-0.1861,-0.1856,-0.1898,-0.1886,-0.1885,-0.1892,-0.1892,-0.1891,-0.1862,-0.1861,-0.1861,-0.186,-0.1816,-0.1815,-0.1814,-0.1818,0,0,-0.181,-0.1809,0,0,0,0,0,0,0,0,-0.186,-0.1862,-0.1887,-0.1886,-0.1885,-0.188,-0.186,-0.1866,-0.1862,-0.1867,-0.1861,-0.186,-0.1836,-0.1833,-0.1829,-0.1816,-0.1814,-0.181,-0.1809,-0.1809,-0.1808,0,0,0,0,0,0,0,-0.186,-0.1862,-0.1893,-0.1888,-0.1886,-0.187,-0.187,-0.1861,-0.1852,-0.1867,-0.1865,-0.187,-0.1835,-0.1831,-0.1828,-0.1814,-0.181,-0.1809,-0.1808,-0.1808,-0.1806,-0.1807,0,0,0,0,0,0,-0.187,-0.1862,-0.1893,-0.1893,-0.1875,-0.1872,-0.1872,-0.188,-0.1853,-0.1849,-0.1871,-0.1869,-0.1833,-0.1829,-0.1826,-0.1842,-0.1809,-0.1807,-0.1807,-0.1805,-0.1806,-0.1807,0,0,0,0,0,0,-0.1869,-0.1873,-0.1893,-0.1879,-0.1881,-0.1874,-0.1883,-0.188,-0.1878,-0.1857,-0.1852,-0.1872,-0.1832,-0.1828,-0.1823,-0.184,-0.1807,-0.1806,-0.1804,-0.1805,-0.1806,-0.1866,0,0,0,0,0,0,-0.1868,-0.1872,-0.1878,-0.188,-0.1882,-0.1906,-0.1883,-0.188,-0.1883,-0.188,-0.1856,-0.1851,-0.1832,-0.1825,-0.1822,-0.1837,-0.1805,-0.1803,-0.1805,-0.1806,-0.1863,-0.1869,-0.1874,0,0,0,0,0,-0.1866,-0.188,-0.1878,-0.1882,-0.1892,-0.1908,-0.1907,-0.1897,-0.1884,-0.189,-0.1872,-0.1852,-0.1831,-0.1825,-0.1821,-0.1836,-0.1803,-0.1804,-0.1806,-0.1861,-0.1868,-0.1874,0,0,0,0,0,0,-0.1863,-0.1879,-0.1877,-0.1894,-0.1904,-0.1904,-0.1908,-0.1903,-0.1893,-0.1886,-0.1861,-0.1855,-0.1856,-0.1839,-0.1833,-0.1839,-0.1814,-0.1815,-0.1857,-0.1863,-0.1869,-0.1871,-0.1804,0,0,0,0,0,-0.1867,-0.188,-0.1894,-0.1906,-0.1914,-0.1911,-0.1915,-0.1912,-0.1907,-0.1901,-0.1886,-0.1869,-0.186,-0.1856,-0.1843,-0.1849,-0.1838,-0.1856,-0.1861,-0.1866,-0.1866,-0.1863,-0.1868,-0.1812,-0.1812,-0.1812,0,0,-0.1868,-0.1879,-0.1885,-0.1906,-0.1909,-0.1928,-0.1911,-0.1923,-0.1934,-0.1898,-0.1902,-0.1886,-0.1865,-0.187,-0.187,-0.1858,-0.188,-0.1868,-0.1872,-0.1869,-0.1865,-0.1871,-0.1876,-0.1813,-0.1813,-0.1813,0,0,-0.1879,-0.1889,-0.1904,-0.1919,-0.1935,-0.1939,-0.1946,-0.1953,-0.1951,-0.1957,-0.1934,-0.193,-0.1916,-0.1908,-0.1901,-0.1929,-0.1908,-0.1925,-0.1957,-0.1955,-0.196,-0.1964,-0.1975,-0.1979,-0.193,-0.193,-0.193,0,-0.1878,-0.1901,-0.1911,-0.1933,-0.1947,-0.1948,-0.197,-0.1974,-0.1976,-0.198,-0.1965,-0.1951,-0.1934,-0.1943,-0.1952,-0.1942,-0.1939,-0.1935,-0.1963,-0.1966,-0.1969,-0.1979,-0.1983,-0.1933,-0.1933,-0.1932,-0.1932,0,-0.1901,-0.1923,-0.1936,-0.1963,-0.1981,-0.2,-0.2017,-0.2028,-0.2024,-0.2026,-0.2031,-0.201,-0.2001,-0.2,-0.1983,-0.2,-0.1991,-0.1969,-0.1948,-0.1978,-0.1988,-0.1991,-0.1937,-0.1936,-0.1935,-0.1935,0,0,-0.1886,-0.1941,-0.1943,-0.1963,-0.1999,-0.2014,-0.2044,-0.2069,-0.2085,-0.2082,-0.21,-0.2085,-0.2071,-0.2062,-0.2043,-0.2043,-0.2068,-0.2018,-0.2016,-0.2033,-0.2075,-0.2056,-0.2057,-0.2049,-0.2049,-0.205,-0.208,0,-0.1897,-0.1942,-0.1969,-0.2009,-0.2033,-0.2057,-0.2086,-0.2108,-0.2118,-0.2137,-0.2125,-0.2128,-0.2096,-0.2092,-0.2089,-0.207,-0.2075,-0.2062,-0.2039,-0.2039,-0.202,-0.206,-0.188,-0.189,-0.2083,-0.2083,-0.2083,0,-0.1903,-0.1935,-0.1978,-0.2034,-0.2047,-0.2072,-0.2115,-0.2141,-0.2175,-0.2184,-0.2189,-0.2178,-0.2183,-0.2146,-0.2135,-0.2127,-0.2106,-0.209,-0.209,-0.2051,-0.2025,-0.1886,-0.1888,-0.2088,-0.2088,-0.2088,-0.2087,0,-0.1874,-0.1937,-0.1969,-0.1988,-0.2054,-0.2076,-0.2107,-0.2148,-0.2172,-0.2209,-0.2225,-0.2228,-0.2223,-0.2204,-0.2167,-0.2154,-0.2154,-0.213,-0.2098,-0.2097,-0.1927,-0.191,-0.2123,-0.2123,-0.2123,-0.2123,-0.2123,0,-0.187,-0.1895,-0.1958,-0.1975,-0.2011,-0.2063,-0.2101,-0.2134,-0.2187,-0.2213,-0.2237,-0.225,-0.2232,-0.2227,-0.2195,-0.2161,-0.2175,-0.2113,-0.2103,-0.1946,-0.1931,-0.2081,-0.2076,-0.2124,-0.2124,-0.2124,-0.2123,0,-0.1828,-0.1875,-0.191,-0.1978,-0.1997,-0.2017,-0.2088,-0.2114,-0.2174,-0.2211,-0.2224,-0.2266,-0.2263,-0.2248,-0.2223,-0.219,-0.2164,-0.2145,-0.1973,-0.1943,-0.2107,-0.2104,-0.2126,-0.2125,-0.2125,-0.2125,-0.2125,0,-0.181,-0.1823,-0.1887,-0.1901,-0.1929,-0.1973,-0.2001,-0.2084,-0.2114,-0.221,-0.2218,-0.2252,-0.2256,-0.2238,-0.2175,-0.2136,-0.2158,-0.1956,-0.1899,-0.2119,-0.2107,-0.2105,-0.2103,-0.1701,-0.1698,-0.1695,-0.1692,0,-0.1758,-0.1778,-0.1803,-0.1835,-0.1864,-0.1902,-0.1952,-0.1984,-0.208,-0.2127,-0.2187,-0.2211,-0.2204,-0.2087,-0.2044,-0.1985,-0.1953,-0.1897,-0.2152,-0.174,-0.1723,-0.1711,-0.1722,-0.1665,-0.1668,-0.167,-0.1671,-0.1673,-0.1698,-0.1697,-0.1724,-0.1747,-0.178,-0.1807,-0.1808,-0.1876,-0.1924,-0.1956,-0.2066,-0.2036,-0.2014,-0.1866,-0.1789,-0.1713,-0.1838,-0.1731,-0.1738,-0.1748,-0.1705,-0.169,-0.1618,-0.162,-0.1622,-0.1624,-0.1626,0,-0.1606,-0.1617,-0.1633,-0.1653,-0.1641,-0.1701,-0.1747,-0.171,-0.1724,-0.1785,-0.1814,-0.1639,-0.1595,-0.1576,-0.1437,-0.1431,-0.138,-0.1356,-0.1273,-0.1301,-0.1326,-0.1259,-0.1054,-0.1053,-0.1051,-0.105,0,0,-0.1556,-0.153,-0.1542,-0.1495,-0.1511,-0.1455,-0.1458,-0.1423,-0.1424,-0.1371,-0.136,-0.1489,-0.1536,-0.1291,-0.1238,-0.113,-0.1195,-0.1069,-0.1524,-0.1453,-0.1476,-0.1539,-0.1467,0,0,0,0,0]},{"header":{"parameterUnit":"m.s-1","parameterCategory":2,"la1":30.2991,"la2":30.254,"lo1":-89.0895,"lo2":-89.0444,"dy":0.0017,"dx":0.0017,"nx":28,"ny":28,"refTime":"2024-12-24T03:00:00:Z","depth":"2","parameterNumber":3,"parameterNumberName":"V-component_of_CURRENTS"},"data":[0,0,0,0,0,0,0,0,0,0,0,0,0,0,0,0,0,0,0,0,0,0,0,0,0,0,0,0,0,0,0,0,0,0,0,0,0,0,0,0,0,0,0,0,0,0,0,0,0,0,0,0,0,0,0,0,0,0,-0.0253,-0.0252,0,-0.0184,-0.0183,-0.0182,-0.0146,-0.0146,-0.0145,-0.0145,-0.0057,-0.0054,-0.0052,0,0,0,0,0,0,0,0,0,0,0,0,0,-0.03,-0.03,-0.0253,-0.0252,-0.0252,-0.0184,-0.0183,-0.0182,-0.0146,-0.0146,-0.0145,-0.0145,-0.0057,-0.0055,-0.0052,0,0,0,0,0,0,0,0,0,0,0,0,0,-0.026,-0.03,-0.0253,-0.0225,-0.0222,-0.0184,-0.0183,-0.0182,-0.0146,-0.0146,-0.0145,-0.0145,-0.0058,-0.0055,-0.0051,-0.0032,0,0,-0.0041,-0.0039,0,0,0,0,0,0,0,0,-0.0263,-0.0259,-0.023,-0.0227,-0.0224,-0.0173,-0.0167,-0.0131,-0.0146,-0.0174,-0.0145,-0.0145,-0.0094,-0.0088,-0.0075,-0.0027,-0.0024,-0.0041,-0.0038,-0.0037,-0.0036,0,0,0,0,0,0,0,-0.0266,-0.0261,-0.0226,-0.0229,-0.0225,-0.0198,-0.0192,-0.016,-0.0135,-0.0172,-0.0169,-0.0162,-0.0092,-0.0078,-0.0072,-0.0022,-0.0041,-0.0038,-0.0035,-0.0034,0.0049,0.0049,0,0,0,0,0,0,-0.0277,-0.0264,-0.0228,-0.0224,-0.0244,-0.0197,-0.0191,-0.0189,-0.0136,-0.0128,-0.0162,-0.016,-0.0084,-0.0076,-0.0069,-0.0039,-0.0037,-0.0034,-0.0032,0.0049,0.0049,0.0049,0,0,0,0,0,0,-0.0279,-0.0275,-0.0231,-0.0242,-0.0234,-0.0197,-0.0195,-0.0188,-0.0175,-0.0128,-0.012,-0.0156,-0.0084,-0.0074,-0.0039,-0.0036,-0.0032,-0.0029,0.0049,0.0049,0.0049,0.0018,0,0,0,0,0,0,-0.0281,-0.0276,-0.028,-0.0243,-0.0234,-0.0213,-0.0195,-0.0187,-0.0171,-0.0168,-0.012,-0.0112,-0.0083,-0.0045,-0.0036,-0.0031,-0.0026,0.0049,0.0049,0.0049,0.0019,0.0017,0.0016,0,0,0,0,0,-0.0283,-0.0289,-0.028,-0.0276,-0.024,-0.0213,-0.0206,-0.0179,-0.0171,-0.0166,-0.0132,-0.0113,-0.0037,-0.0041,-0.0031,-0.0025,0.0049,0.0049,0.0049,0.002,0.0018,0.0016,0,0,0,0,0,0,-0.0311,-0.0285,-0.0275,-0.0273,-0.0247,-0.0207,-0.0202,-0.0182,-0.0152,-0.0151,-0.0108,-0.0097,-0.0066,-0.0042,-0.0048,-0.0001,0.0007,0.001,-0.0018,-0.002,-0.0022,-0.0038,-0.0023,0,0,0,0,0,-0.032,-0.0319,-0.0286,-0.0285,-0.0275,-0.024,-0.0226,-0.0207,-0.0175,-0.0162,-0.0127,-0.0091,-0.0056,-0.0036,-0.0004,0.0024,0.005,0.0033,0.0031,0.003,0.0023,0.0069,0.0071,0.005,0.005,0.005,0,0,-0.0331,-0.0317,-0.0316,-0.0291,-0.0271,-0.0259,-0.0231,-0.0215,-0.0201,-0.0156,-0.013,-0.0095,-0.0051,-0.0019,-0.0004,0.0001,0.005,0.003,0.0028,0.0023,0.0069,0.0071,0.0073,0.0051,0.005,0.005,0,0,-0.0356,-0.0342,-0.035,-0.033,-0.0303,-0.0278,-0.0276,-0.0237,-0.0216,-0.0185,-0.0149,-0.0112,-0.0063,-0.0026,-0.0002,0.0006,0.0039,0.0013,-0.0005,0.004,0.0042,0.0044,0.0083,0.0088,0.0014,0.0014,0.0014,0,-0.0372,-0.0376,-0.0347,-0.0346,-0.0334,-0.029,-0.0292,-0.0261,-0.0214,-0.0195,-0.0184,-0.0102,-0.0065,-0.0019,-0.0018,0.0003,0.0029,-0.0001,0.0038,0.004,0.0043,0.0082,0.0089,0.0012,0.0012,0.0013,0.0013,0,-0.0399,-0.04,-0.0403,-0.0388,-0.0369,-0.0364,-0.0319,-0.0296,-0.0266,-0.023,-0.0182,-0.0126,-0.0078,-0.0059,-0.0035,0.0003,0.0015,0.0029,0.0041,0.0043,0.0084,0.0092,0.001,0.0011,0.0011,0.0011,0,0,-0.0442,-0.0428,-0.0428,-0.0432,-0.0393,-0.0383,-0.0355,-0.0317,-0.0298,-0.0245,-0.0214,-0.015,-0.0117,-0.0088,-0.0046,-0.0009,0.0035,0.001,0.0013,0.0045,0.0129,0.0164,0.0176,0.0054,0.0056,0.0056,0.0151,0,-0.0475,-0.0495,-0.0468,-0.0477,-0.0484,-0.0431,-0.041,-0.0366,-0.0317,-0.0274,-0.0204,-0.0163,-0.0127,-0.0106,-0.0059,0.0015,0.0053,0.0008,0.0125,0.0128,0.0156,0.0185,0.0151,0.0234,0.0158,0.0159,0.016,0,-0.0511,-0.0521,-0.0543,-0.053,-0.0526,-0.0518,-0.0476,-0.0449,-0.0369,-0.033,-0.0267,-0.021,-0.0135,-0.0115,0.0016,-0.0016,0.0047,0.0101,0.0106,0.0153,0.0177,0.022,0.0251,0.0173,0.0172,0.0171,0.0171,0,-0.0569,-0.057,-0.0594,-0.059,-0.0565,-0.0559,-0.0539,-0.0472,-0.0449,-0.0367,-0.0338,-0.0236,-0.0185,-0.0089,0.0034,0.0022,0.0173,0.0177,0.0267,0.027,0.0272,0.0274,0.0255,0.0255,0.0254,0.0254,0.0254,0,-0.0619,-0.0635,-0.0627,-0.0641,-0.0663,-0.0618,-0.0616,-0.0575,-0.0511,-0.0483,-0.0377,-0.0326,-0.018,-0.007,0.0031,0.0185,0.018,0.0271,0.0302,0.0261,0.0261,0.0228,0.0224,0.0258,0.0257,0.0256,0.0256,0,-0.0679,-0.0673,-0.0702,-0.0695,-0.0695,-0.0711,-0.0683,-0.0675,-0.0602,-0.0559,-0.0539,-0.0388,-0.0233,-0.0078,0.0092,0.0185,0.0321,0.0369,0.0312,0.0334,0.0386,0.0379,0.0482,0.0484,0.0486,0.0487,0.0488,0,-0.0712,-0.0735,-0.0756,-0.0781,-0.0782,-0.0792,-0.0798,-0.0736,-0.0715,-0.0594,-0.0575,-0.0415,-0.0283,0.0001,0.0189,0.0389,0.0377,0.0461,0.0436,0.0392,0.0411,0.0401,0.0392,0.0426,0.0427,0.0427,0.0428,0,-0.0773,-0.0779,-0.0805,-0.0863,-0.0887,-0.0902,-0.0896,-0.0892,-0.0806,-0.0746,-0.0628,-0.0513,-0.0218,0.0017,0.0285,0.0391,0.043,0.0479,0.0462,0.0373,0.0347,0.0363,0.0355,0.0432,0.0432,0.0431,0.0431,0.0431,-0.0812,-0.0851,-0.089,-0.0941,-0.0975,-0.0997,-0.1009,-0.0973,-0.0932,-0.0818,-0.0691,-0.0496,-0.0244,0.0141,0.0334,0.0505,0.0503,0.0531,0.0526,0.0521,0.0497,0.0476,0.058,0.0581,0.0581,0.0581,0.0582,0,-0.0856,-0.0902,-0.0963,-0.1019,-0.1067,-0.1063,-0.1064,-0.1044,-0.0996,-0.086,-0.0722,-0.0442,-0.0151,0.0105,0.0386,0.056,0.0532,0.0575,0.0503,0.0498,0.0493,0.0465,0.0542,0.0542,0.0542,0.0543,0,0,-0.0881,-0.0953,-0.0988,-0.1083,-0.1123,-0.116,-0.1161,-0.1106,-0.1012,-0.087,-0.0718,-0.0491,-0.0162,0.0025,0.0256,0.0402,0.0392,0.0407,0.0421,0.0303,0.0296,0.0455,0.0404,0,0,0,0,0]}],[{"header":{"parameterUnit":"m.s-1","parameterCategory":2,"la1":30.2991,"la2":30.254,"lo1":-89.0895,"lo2":-89.0444,"dy":0.0017,"dx":0.0017,"nx":28,"ny":28,"refTime":"2024-12-24T03:00:00:Z","depth":"4","parameterNumber":2,"parameterNumberName":"U-component_of_CURRENTS"},"data":[0,0,0,0,0,0,0,0,0,0,0,0,0,0,0,0,0,0,0,0,0,0,0,0,0,0,0,0,0,0,0,0,0,0,0,0,0,0,0,0,0,0,0,0,0,0,0,0,0,0,0,0,0,0,0,0,0,0,-0.1257,-0.1257,0,-0.1279,-0.128,-0.128,-0.1296,-0.1296,-0.1297,-0.1297,-0.1312,-0.1312,-0.1312,0,0,0,0,0,0,0,0,0,0,0,0,0,-0.1214,-0.1214,-0.1257,-0.1258,-0.1258,-0.1279,-0.128,-0.128,-0.1296,-0.1296,-0.1297,-0.1297,-0.1312,-0.1312,-0.1312,0,0,0,0,0,0,0,0,0,0,0,0,0,-0.1232,-0.1215,-0.1257,-0.127,-0.1272,-0.1279,-0.128,-0.128,-0.1296,-0.1297,-0.1297,-0.1297,-0.1312,-0.1312,-0.1312,-0.1303,0,0,-0.1312,-0.1312,0,0,0,0,0,0,0,0,-0.1231,-0.1234,-0.1268,-0.1269,-0.1271,-0.1287,-0.127,-0.1288,-0.1296,-0.1285,-0.1297,-0.1298,-0.1304,-0.1305,-0.1305,-0.1304,-0.1305,-0.1312,-0.1313,-0.1313,-0.1313,0,0,0,0,0,0,0,-0.123,-0.1233,-0.1264,-0.1268,-0.127,-0.127,-0.1273,-0.1273,-0.129,-0.1286,-0.1288,-0.1293,-0.1304,-0.1305,-0.1306,-0.1305,-0.1312,-0.1313,-0.1313,-0.1313,-0.1356,-0.1357,0,0,0,0,0,0,-0.1231,-0.1231,-0.1263,-0.1265,-0.1254,-0.1271,-0.1274,-0.128,-0.129,-0.1293,-0.1292,-0.1294,-0.1304,-0.1305,-0.1306,-0.1359,-0.1313,-0.1313,-0.1313,-0.1355,-0.1356,-0.1357,0,0,0,0,0,0,-0.123,-0.1234,-0.1262,-0.125,-0.1254,-0.1271,-0.1278,-0.128,-0.1304,-0.1295,-0.1298,-0.1316,-0.1305,-0.1306,-0.1329,-0.1357,-0.1313,-0.1313,-0.1353,-0.1355,-0.1356,-0.1424,0,0,0,0,0,0,-0.1229,-0.1233,-0.1247,-0.125,-0.1255,-0.1285,-0.1277,-0.128,-0.1306,-0.1308,-0.1316,-0.1316,-0.1305,-0.1329,-0.1329,-0.1356,-0.1313,-0.1352,-0.1354,-0.1356,-0.142,-0.1427,-0.1433,0,0,0,0,0,-0.1227,-0.1242,-0.1248,-0.1252,-0.127,-0.1287,-0.1289,-0.1301,-0.1307,-0.1323,-0.133,-0.1317,-0.1342,-0.133,-0.133,-0.1358,-0.1351,-0.1354,-0.1356,-0.1417,-0.1426,-0.1433,0,0,0,0,0,0,-0.1231,-0.1245,-0.1251,-0.1271,-0.1287,-0.1291,-0.1308,-0.1315,-0.1333,-0.134,-0.1331,-0.1332,-0.1361,-0.135,-0.1337,-0.1375,-0.1344,-0.1347,-0.1391,-0.1399,-0.1406,-0.1404,-0.1313,0,0,0,0,0,-0.1238,-0.1254,-0.1267,-0.1284,-0.1295,-0.1306,-0.1318,-0.1328,-0.1339,-0.1348,-0.1355,-0.136,-0.1366,-0.1377,-0.1377,-0.14,-0.1385,-0.1417,-0.1424,-0.143,-0.1428,-0.1428,-0.1434,-0.1365,-0.1365,-0.1365,0,0,-0.1245,-0.1255,-0.1265,-0.1287,-0.13,-0.1322,-0.1315,-0.1342,-0.1365,-0.1346,-0.1386,-0.1385,-0.1377,-0.1403,-0.1415,-0.1401,-0.1445,-0.1433,-0.1438,-0.1433,-0.1431,-0.1438,-0.1444,-0.1366,-0.1366,-0.1366,0,0,-0.1259,-0.1277,-0.1294,-0.1312,-0.1339,-0.1347,-0.1362,-0.1382,-0.14,-0.1431,-0.1424,-0.1442,-0.1456,-0.1457,-0.1457,-0.1501,-0.1479,-0.1505,-0.1542,-0.1543,-0.1548,-0.1553,-0.1557,-0.1561,-0.1511,-0.1512,-0.1512,0,-0.1269,-0.129,-0.1302,-0.1325,-0.1346,-0.1363,-0.139,-0.1409,-0.1437,-0.1454,-0.1455,-0.148,-0.1479,-0.1502,-0.152,-0.1517,-0.1512,-0.1513,-0.1551,-0.1555,-0.1559,-0.1562,-0.1566,-0.1515,-0.1515,-0.1514,-0.1514,0,-0.1287,-0.1317,-0.1332,-0.1366,-0.139,-0.1418,-0.1446,-0.1477,-0.1501,-0.1515,-0.1552,-0.155,-0.1563,-0.1571,-0.1561,-0.159,-0.1578,-0.1558,-0.1531,-0.157,-0.1571,-0.1574,-0.152,-0.1519,-0.1518,-0.1517,0,0,-0.1271,-0.1333,-0.134,-0.1368,-0.1417,-0.1436,-0.1485,-0.1526,-0.1558,-0.1586,-0.1623,-0.1638,-0.1639,-0.1638,-0.1631,-0.1635,-0.1666,-0.1615,-0.1613,-0.1619,-0.1673,-0.1571,-0.1564,-0.1654,-0.1654,-0.1655,-0.1669,0,-0.1284,-0.1333,-0.1364,-0.1419,-0.1447,-0.1488,-0.1531,-0.1572,-0.1605,-0.1646,-0.1655,-0.1683,-0.1664,-0.1676,-0.1681,-0.1667,-0.1675,-0.1664,-0.1633,-0.1632,-0.1537,-0.1564,-0.1657,-0.1671,-0.1671,-0.1672,-0.1672,0,-0.1283,-0.132,-0.1376,-0.1449,-0.1467,-0.1507,-0.1576,-0.1616,-0.1673,-0.17,-0.1728,-0.1734,-0.1756,-0.173,-0.1728,-0.1724,-0.1706,-0.1691,-0.1691,-0.1569,-0.1534,-0.1619,-0.1677,-0.1677,-0.1676,-0.1676,-0.1676,0,-0.1248,-0.1326,-0.1373,-0.1398,-0.1482,-0.1524,-0.157,-0.1634,-0.1668,-0.1734,-0.176,-0.1784,-0.1796,-0.1783,-0.1754,-0.1748,-0.1741,-0.1726,-0.1619,-0.1612,-0.1671,-0.1666,-0.1722,-0.1722,-0.1722,-0.1722,-0.1722,0,-0.1232,-0.1274,-0.1367,-0.1392,-0.1452,-0.1518,-0.1581,-0.163,-0.17,-0.173,-0.1781,-0.1793,-0.1808,-0.1802,-0.1776,-0.17,-0.1758,-0.1624,-0.1605,-0.1701,-0.1699,-0.1674,-0.1668,-0.1722,-0.1722,-0.1722,-0.1722,0,-0.1179,-0.1244,-0.1302,-0.1402,-0.1436,-0.1477,-0.1579,-0.1612,-0.1693,-0.1734,-0.1755,-0.1808,-0.1793,-0.1792,-0.1771,-0.1709,-0.1662,-0.1621,-0.1735,-0.1722,-0.1533,-0.1531,-0.1507,-0.1504,-0.1501,-0.1498,-0.1496,0,-0.1153,-0.1178,-0.1288,-0.132,-0.1371,-0.1446,-0.1488,-0.159,-0.1618,-0.1716,-0.1716,-0.175,-0.1763,-0.1655,-0.167,-0.1617,-0.1589,-0.1568,-0.1539,-0.1525,-0.151,-0.1512,-0.1514,-0.1491,-0.149,-0.149,-0.1489,0,-0.1093,-0.1143,-0.1187,-0.1251,-0.1308,-0.1362,-0.1432,-0.1446,-0.1547,-0.164,-0.163,-0.162,-0.1604,-0.1577,-0.1545,-0.1506,-0.1585,-0.1536,-0.1542,-0.1514,-0.1506,-0.1493,-0.1499,-0.1478,-0.148,-0.1481,-0.1481,0,-0.1042,-0.1054,-0.1114,-0.1159,-0.1223,-0.1245,-0.1306,-0.1338,-0.1383,-0.1495,-0.1488,-0.1527,-0.1586,-0.1519,-0.1491,-0.1444,-0.1417,-0.137,-0.1384,-0.1396,-0.1349,-0.1321,-0.1218,0,0,0,0,0,-0.0978,-0.0977,-0.1012,-0.1053,-0.1112,-0.1146,-0.1243,-0.1305,-0.141,-0.1363,-0.1423,-0.1403,-0.137,-0.1395,-0.1317,-0.1429,-0.1417,-0.1335,-0.137,-0.142,-0.1432,-0.1385,0,0,0,0,0,0,-0.0935,-0.096,-0.0971,-0.0946,-0.0951,-0.1001,-0.1057,-0.1138,-0.1125,-0.1237,-0.1221,-0.1311,-0.129,-0.1375,-0.1281,-0.1287,-0.1281,-0.1369,-0.1366,-0.1413,-0.1424,-0.1434,-0.1389,0,0,0,0,0]},{"header":{"parameterUnit":"m.s-1","parameterCategory":2,"la1":30.2991,"la2":30.254,"lo1":-89.0895,"lo2":-89.0444,"dy":0.0017,"dx":0.0017,"nx":28,"ny":28,"refTime":"2024-12-24T03:00:00:Z","depth":"4","parameterNumber":3,"parameterNumberName":"V-component_of_CURRENTS"},"data":[0,0,0,0,0,0,0,0,0,0,0,0,0,0,0,0,0,0,0,0,0,0,0,0,0,0,0,0,0,0,0,0,0,0,0,0,0,0,0,0,0,0,0,0,0,0,0,0,0,0,0,0,0,0,0,0,0,0,-0.0157,-0.0157,0,-0.0114,-0.0114,-0.0113,-0.0088,-0.0088,-0.0088,-0.0088,-0.002,-0.0018,-0.0017,0,0,0,0,0,0,0,0,0,0,0,0,0,-0.0176,-0.0176,-0.0158,-0.0157,-0.0156,-0.0114,-0.0113,-0.0113,-0.0088,-0.0088,-0.0088,-0.0088,-0.0021,-0.0019,-0.0016,0,0,0,0,0,0,0,0,0,0,0,0,0,-0.0154,-0.0176,-0.0158,-0.0139,-0.0137,-0.0114,-0.0113,-0.0113,-0.0088,-0.0088,-0.0088,-0.0087,-0.0021,-0.0019,-0.0016,-0.0002,0,0,-0.0008,-0.0007,0,0,0,0,0,0,0,0,-0.0155,-0.0153,-0.0142,-0.014,-0.0138,-0.0107,-0.0095,-0.0075,-0.0088,-0.0106,-0.0088,-0.0087,-0.0047,-0.0042,-0.0034,0.0001,0.0004,-0.0008,-0.0006,-0.0005,-0.0004,0,0,0,0,0,0,0,-0.0157,-0.0155,-0.014,-0.0142,-0.0139,-0.0119,-0.0116,-0.0091,-0.0077,-0.0104,-0.0103,-0.0098,-0.0046,-0.0037,-0.0032,0.0005,-0.0008,-0.0006,-0.0004,-0.0003,0.0059,0.0059,0,0,0,0,0,0,-0.0165,-0.0156,-0.0141,-0.0139,-0.0147,-0.0119,-0.0115,-0.0116,-0.0078,-0.0072,-0.0099,-0.0097,-0.0041,-0.0035,-0.003,-0.0007,-0.0005,-0.0003,-0.0001,0.0059,0.0059,0.0059,0,0,0,0,0,0,-0.0166,-0.0165,-0.0143,-0.0146,-0.0142,-0.0119,-0.012,-0.0116,-0.0109,-0.0073,-0.0067,-0.0097,-0.0041,-0.0033,-0.0009,-0.0004,-0.0002,0.0001,0.0059,0.0059,0.0059,0.0038,0,0,0,0,0,0,-0.0167,-0.0165,-0.0171,-0.0147,-0.0142,-0.0134,-0.012,-0.0115,-0.0107,-0.0105,-0.007,-0.0063,-0.004,-0.0013,-0.0006,-0.0,0.0003,0.0059,0.0059,0.0059,0.0038,0.0037,0.0036,0,0,0,0,0,-0.0168,-0.0176,-0.0172,-0.017,-0.0151,-0.0135,-0.013,-0.0112,-0.0107,-0.0106,-0.008,-0.0064,-0.0007,-0.0011,-0.0003,0.0004,0.0058,0.0059,0.0059,0.0039,0.0037,0.0036,0,0,0,0,0,0,-0.0187,-0.0174,-0.0168,-0.0173,-0.0157,-0.0131,-0.013,-0.0116,-0.0096,-0.0095,-0.0061,-0.0053,-0.003,-0.0012,-0.0016,0.0022,0.0028,0.0029,0.001,0.0008,0.0007,-0.0004,0.0005,0,0,0,0,0,-0.0195,-0.02,-0.0179,-0.0184,-0.0178,-0.0155,-0.0147,-0.0135,-0.0113,-0.0104,-0.0078,-0.005,-0.0022,-0.0007,0.0017,0.0039,0.0061,0.0047,0.0046,0.0045,0.0041,0.0081,0.0084,0.006,0.006,0.006,0,0,-0.0204,-0.0198,-0.02,-0.0188,-0.0176,-0.017,-0.015,-0.0143,-0.0133,-0.01,-0.0081,-0.0054,-0.0018,0.0006,0.0018,0.0022,0.0063,0.0045,0.0044,0.0041,0.0082,0.0084,0.0087,0.006,0.006,0.006,0,0,-0.0224,-0.022,-0.0229,-0.0218,-0.0203,-0.0186,-0.0186,-0.0161,-0.0146,-0.0125,-0.0096,-0.0067,-0.0031,0.0001,0.0021,0.0028,0.0055,0.0033,0.0022,0.0061,0.0063,0.0066,0.0094,0.0099,0.0034,0.0034,0.0034,0,-0.0237,-0.0244,-0.0228,-0.023,-0.0224,-0.0196,-0.0198,-0.0177,-0.0146,-0.0131,-0.0125,-0.006,-0.0031,0.0011,0.0012,0.0027,0.0047,0.0024,0.006,0.0062,0.0065,0.0094,0.01,0.0033,0.0033,0.0033,0.0033,0,-0.0258,-0.0263,-0.0267,-0.0261,-0.025,-0.025,-0.0219,-0.0204,-0.0184,-0.0158,-0.0119,-0.0075,-0.0037,-0.0021,-0.0002,0.0033,0.004,0.0053,0.0062,0.0066,0.0097,0.0103,0.0031,0.0032,0.0032,0.0032,0,0,-0.0288,-0.0285,-0.0287,-0.0292,-0.0268,-0.0264,-0.0244,-0.0217,-0.0205,-0.0165,-0.0141,-0.0087,-0.0063,-0.0039,-0.0005,0.0029,0.0067,0.0043,0.0046,0.0069,0.0146,0.0133,0.0139,0.0085,0.0086,0.0087,0.0158,0,-0.0311,-0.0331,-0.0315,-0.0325,-0.0332,-0.0298,-0.0284,-0.0253,-0.0219,-0.0188,-0.013,-0.0099,-0.0068,-0.0053,-0.001,0.005,0.0083,0.0046,0.014,0.0142,0.0129,0.0146,0.009,0.0163,0.0165,0.0166,0.0167,0,-0.0336,-0.0347,-0.0368,-0.0365,-0.0364,-0.0363,-0.0337,-0.0319,-0.026,-0.0232,-0.018,-0.0136,-0.0072,-0.0055,0.0056,0.0029,0.008,0.0125,0.0129,0.0128,0.0142,0.016,0.0179,0.0178,0.0177,0.0176,0.0175,0,-0.0373,-0.0381,-0.0404,-0.0403,-0.0393,-0.0394,-0.0385,-0.0338,-0.0324,-0.0262,-0.0243,-0.0156,-0.0116,-0.0033,0.0065,0.0059,0.0181,0.0189,0.0227,0.0226,0.0226,0.0222,0.0257,0.0257,0.0257,0.0257,0.0257,0,-0.0401,-0.0419,-0.0429,-0.0442,-0.0468,-0.0441,-0.0449,-0.042,-0.0378,-0.0359,-0.0275,-0.0238,-0.011,-0.0022,0.0062,0.0168,0.0185,0.0226,0.0246,0.0214,0.0209,0.023,0.0226,0.026,0.0259,0.0259,0.0258,0,-0.0433,-0.044,-0.047,-0.0481,-0.049,-0.0509,-0.0507,-0.0505,-0.0455,-0.0427,-0.0412,-0.0295,-0.0177,-0.0048,0.0095,0.0158,0.0261,0.029,0.0244,0.026,0.0279,0.0273,0.0339,0.034,0.034,0.034,0.034,0,-0.045,-0.0471,-0.0512,-0.0541,-0.0552,-0.0575,-0.0591,-0.0555,-0.0543,-0.046,-0.0446,-0.0329,-0.0241,-0.004,0.0091,0.0259,0.0274,0.0322,0.0302,0.0276,0.0289,0.0282,0.0276,0.034,0.034,0.034,0.034,0,-0.0481,-0.0501,-0.0528,-0.0593,-0.0628,-0.0655,-0.0667,-0.0663,-0.0607,-0.0569,-0.0469,-0.0351,-0.0213,-0.0048,0.0085,0.0202,0.0291,0.0324,0.0324,0.0305,0.0278,0.0289,0.0283,0.0341,0.0341,0.0341,0.0341,0,-0.0503,-0.0536,-0.0582,-0.0633,-0.0686,-0.0714,-0.0714,-0.0685,-0.0661,-0.0559,-0.053,-0.0365,-0.0263,-0.0078,0.0045,0.0163,0.0185,0.0208,0.0214,0.0215,0.0157,0.0102,0.0131,0,0,0,0,0,-0.0518,-0.0558,-0.0616,-0.0669,-0.0723,-0.0747,-0.0753,-0.0736,-0.0685,-0.0626,-0.0572,-0.044,-0.0233,-0.0133,-0.0018,0.0035,0.0194,0.017,0.0221,0.0344,0.0343,0.0295,0,0,0,0,0,0,-0.0529,-0.0587,-0.0618,-0.0688,-0.073,-0.0777,-0.0782,-0.0747,-0.0697,-0.0631,-0.0516,-0.0435,-0.0231,-0.0304,-0.0025,0.0014,0.0056,0.0277,0.0279,0.0345,0.0344,0.0343,0.0293,0,0,0,0,0]}]]